TimeEDT,TemperatureF,Dew PointF,Humidity,Sea Level PressureIn,VisibilityMPH,Wind Direction,Wind SpeedMPH,Gust SpeedMPH,PrecipitationIn,Events,Conditions,WindDirDegrees,DateUTC
12:16 AM,77.0,68.0,74,29.92,10.0,SSW,4.6,-,N/A,,Scattered Clouds,210,2013-06-26 04:16:00
12:36 AM,77.0,68.0,74,29.92,10.0,SW,5.8,-,N/A,Thunderstorm,Mostly Cloudy,220,2013-06-26 04:36:00
12:55 AM,68.0,62.6,83,29.92,2.0,South,9.2,19.6,0.18,Rain-Thunderstorm,Heavy Thunderstorms and Rain,190,2013-06-26 04:55:00
1:16 AM,68.0,64.4,88,29.90,7.0,Calm,Calm,-,0.01,Rain-Thunderstorm,Light Thunderstorms and Rain,0,2013-06-26 05:16:00
1:36 AM,68.0,64.4,88,29.92,10.0,Calm,Calm,-,0.02,Thunderstorm,Thunderstorm,0,2013-06-26 05:36:00
1:55 AM,66.2,62.6,88,29.95,2.5,North,19.6,28.8,0.47,Rain-Thunderstorm,Heavy Thunderstorms and Rain,360,2013-06-26 05:55:00
2:16 AM,64.4,62.6,94,29.96,4.0,North,12.7,-,0.10,Rain-Thunderstorm,Heavy Thunderstorms and Rain,350,2013-06-26 06:16:00
2:36 AM,64.4,62.6,94,29.93,5.0,NNE,8.1,-,0.43,Rain-Thunderstorm,Rain,20,2013-06-26 06:36:00
2:55 AM,64.4,62.6,94,29.95,10.0,Calm,Calm,-,0.44,Rain-Thunderstorm,Light Thunderstorms and Rain,0,2013-06-26 06:55:00
3:16 AM,64.4,62.6,94,29.94,10.0,Calm,Calm,-,0.02,Rain,Light Rain,0,2013-06-26 07:16:00
3:36 AM,64.4,62.6,94,29.91,10.0,NE,9.2,-,0.02,Rain-Thunderstorm,Rain,50,2013-06-26 07:36:00
3:55 AM,64.4,62.6,94,29.90,10.0,Calm,Calm,-,0.02,,Scattered Clouds,0,2013-06-26 07:55:00
4:16 AM,64.4,62.6,94,29.91,10.0,Calm,Calm,-,N/A,,Scattered Clouds,0,2013-06-26 08:16:00
4:36 AM,64.4,62.6,94,29.92,10.0,Calm,Calm,-,N/A,,Mostly Cloudy,0,2013-06-26 08:36:00
4:55 AM,64.4,64.4,100,29.94,7.0,SSW,5.8,-,0.04,Rain,Light Rain,210,2013-06-26 08:55:00
5:16 AM,64.4,62.6,94,29.93,10.0,South,6.9,-,0.01,Rain,Light Rain,170,2013-06-26 09:16:00
5:36 AM,64.4,62.6,94,29.93,10.0,SSE,4.6,-,0.01,,Overcast,150,2013-06-26 09:36:00
5:55 AM,64.4,62.6,94,29.92,10.0,SSE,4.6,-,0.01,,Overcast,150,2013-06-26 09:55:00
6:16 AM,64.4,62.6,94,29.93,10.0,South,3.5,-,N/A,,Overcast,170,2013-06-26 10:16:00
6:36 AM,64.4,62.6,94,29.94,10.0,South,3.5,-,N/A,,Mostly Cloudy,190,2013-06-26 10:36:00
6:55 AM,64.4,64.4,100,29.94,10.0,South,3.5,-,N/A,,Overcast,170,2013-06-26 10:55:00
7:16 AM,66.2,64.4,94,29.93,10.0,South,4.6,-,N/A,,Overcast,170,2013-06-26 11:16:00
7:35 AM,66.2,64.4,94,29.92,10.0,SSE,4.6,-,N/A,,Overcast,160,2013-06-26 11:35:00
7:56 AM,68.0,64.4,88,29.91,10.0,Calm,Calm,-,N/A,,Overcast,0,2013-06-26 11:56:00
8:16 AM,68.0,64.4,88,29.92,10.0,Calm,Calm,-,N/A,,Overcast,0,2013-06-26 12:16:00
8:35 AM,68.0,64.4,88,29.92,10.0,Calm,Calm,-,N/A,,Overcast,0,2013-06-26 12:35:00
8:56 AM,68.0,64.4,88,29.93,7.0,WSW,3.5,-,N/A,,Overcast,250,2013-06-26 12:56:00
9:16 AM,68.0,64.4,88,29.92,7.0,Calm,Calm,-,N/A,,Overcast,0,2013-06-26 13:16:00
9:35 AM,69.8,66.2,88,29.92,10.0,West,3.5,-,N/A,,Mostly Cloudy,260,2013-06-26 13:35:00
9:56 AM,71.6,66.2,83,29.92,10.0,SSW,3.5,-,N/A,,Scattered Clouds,210,2013-06-26 13:56:00
10:16 AM,73.4,68.0,83,29.92,10.0,SW,5.8,-,N/A,,Scattered Clouds,220,2013-06-26 14:16:00
10:35 AM,73.4,68.0,83,29.92,10.0,SW,4.6,-,N/A,,Mostly Cloudy,230,2013-06-26 14:35:00
10:56 AM,73.4,68.0,83,29.93,10.0,SW,4.6,-,N/A,,Overcast,230,2013-06-26 14:56:00
11:16 AM,77.0,68.0,74,29.92,10.0,SW,6.9,-,N/A,,Mostly Cloudy,220,2013-06-26 15:16:00
11:35 AM,77.0,68.0,74,29.93,10.0,SW,5.8,-,N/A,,Mostly Cloudy,230,2013-06-26 15:35:00
11:56 AM,78.8,68.0,69,29.93,10.0,West,9.2,-,N/A,,Scattered Clouds,260,2013-06-26 15:56:00
12:16 PM,77.0,66.2,69,29.94,10.0,WSW,9.2,-,N/A,,Scattered Clouds,240,2013-06-26 16:16:00
12:36 PM,77.0,68.0,74,29.94,10.0,West,3.5,-,0.01,Rain,Rain,280,2013-06-26 16:36:00
12:56 PM,75.2,68.0,78,29.93,10.0,WNW,3.5,-,0.04,,Overcast,300,2013-06-26 16:56:00
1:16 PM,77.0,68.0,74,29.92,10.0,Calm,Calm,-,N/A,,Scattered Clouds,0,2013-06-26 17:16:00
1:36 PM,80.6,68.0,65,29.91,10.0,SSW,3.5,-,N/A,,Scattered Clouds,210,2013-06-26 17:36:00
1:56 PM,80.6,68.0,65,29.90,10.0,SW,5.8,-,N/A,,Scattered Clouds,230,2013-06-26 17:56:00
2:16 PM,80.6,68.0,65,29.90,10.0,SSW,5.8,-,N/A,,Mostly Cloudy,200,2013-06-26 18:16:00
2:36 PM,80.6,69.8,70,29.89,10.0,SSW,5.8,-,N/A,,Mostly Cloudy,200,2013-06-26 18:36:00
2:56 PM,82.4,69.8,66,29.88,10.0,South,8.1,-,N/A,,Scattered Clouds,190,2013-06-26 18:56:00
3:16 PM,82.4,69.8,66,29.87,10.0,South,9.2,-,N/A,,Scattered Clouds,170,2013-06-26 19:16:00
3:36 PM,82.4,69.8,66,29.87,10.0,SW,6.9,-,N/A,,Scattered Clouds,220,2013-06-26 19:36:00
3:56 PM,82.4,69.8,66,29.86,10.0,SSW,8.1,-,N/A,,Mostly Cloudy,210,2013-06-26 19:56:00
4:16 PM,82.4,69.8,66,29.84,10.0,South,6.9,-,N/A,,Mostly Cloudy,190,2013-06-26 20:16:00
4:36 PM,82.4,69.8,66,29.84,10.0,SSW,8.1,-,N/A,,Scattered Clouds,210,2013-06-26 20:36:00
4:56 PM,82.4,68.0,62,29.83,10.0,South,8.1,-,N/A,,Scattered Clouds,190,2013-06-26 20:56:00
5:15 PM,82.4,69.8,66,29.83,10.0,South,8.1,-,N/A,,Scattered Clouds,170,2013-06-26 21:15:00
5:36 PM,80.6,69.8,70,29.82,10.0,South,8.1,-,N/A,,Mostly Cloudy,170,2013-06-26 21:36:00
5:56 PM,80.6,68.0,65,29.82,10.0,SSW,10.4,-,N/A,,Mostly Cloudy,210,2013-06-26 21:56:00
6:16 PM,77.0,62.6,61,29.82,10.0,WSW,13.8,25.3,N/A,,Scattered Clouds,240,2013-06-26 22:16:00
6:36 PM,73.4,62.6,69,29.81,10.0,SW,9.2,-,N/A,,Clear,220,2013-06-26 22:36:00
6:56 PM,73.4,60.8,65,29.82,10.0,SSW,6.9,-,N/A,,Clear,210,2013-06-26 22:56:00
7:16 PM,73.4,62.6,69,29.83,10.0,Calm,Calm,-,N/A,,Mostly Cloudy,0,2013-06-26 23:16:00
7:36 PM,71.6,62.6,73,29.82,10.0,SSW,4.6,-,N/A,,Overcast,200,2013-06-26 23:36:00
7:56 PM,73.4,62.6,69,29.82,10.0,South,6.9,-,N/A,,Mostly Cloudy,170,2013-06-26 23:56:00
8:16 PM,71.6,64.4,78,29.82,10.0,Calm,Calm,-,N/A,,Clear,0,2013-06-27 00:16:00
8:36 PM,71.6,64.4,78,29.83,10.0,South,3.5,-,N/A,,Mostly Cloudy,170,2013-06-27 00:36:00
8:56 PM,71.6,64.4,78,29.83,10.0,SSE,4.6,-,N/A,,Mostly Cloudy,160,2013-06-27 00:56:00
9:16 PM,71.6,64.4,78,29.82,10.0,Calm,Calm,-,N/A,,Scattered Clouds,0,2013-06-27 01:16:00
9:36 PM,69.8,66.2,88,29.81,10.0,SE,4.6,-,N/A,,Clear,140,2013-06-27 01:36:00
9:56 PM,69.8,66.2,88,29.81,10.0,SE,3.5,-,N/A,,Clear,140,2013-06-27 01:56:00
10:16 PM,69.8,66.2,88,29.81,10.0,ESE,4.6,-,N/A,,Clear,120,2013-06-27 02:16:00
10:36 PM,69.8,66.2,88,29.82,10.0,SSE,5.8,-,N/A,,Clear,150,2013-06-27 02:36:00
10:56 PM,69.8,64.4,83,29.81,10.0,SE,4.6,-,N/A,,Scattered Clouds,140,2013-06-27 02:56:00
11:16 PM,69.8,64.4,83,29.82,10.0,SSE,4.6,-,N/A,,Overcast,150,2013-06-27 03:16:00
11:36 PM,69.8,64.4,83,29.82,10.0,SSE,6.9,-,N/A,,Mostly Cloudy,160,2013-06-27 03:36:00
11:56 PM,68.0,66.2,94,29.82,10.0,SSE,6.9,-,N/A,Rain,Light Rain,150,2013-06-27 03:56:00